Disclaimer

Please do not use the information listed here in-flight or in-navigation, as they are not provided to us by the airports but are provided by volunteers, so they might be outdated.

Search


Regions


Airport information page

Radio informations:
Tower (TWR) - 124.675 MHz
INFO - 128.675 MHz
Approach (APP) - 120.875 MHz

Airport informations:
Latitude: 43° 32' 20.20" N
Longitude: 016° 17' 52.67" E
Elevation: 79 feet - 24 meters
Operating hours: Remarks
Operating agency: Civil government, landing fees and diplomatic clearance may be required
Timezone: UTC+1(+2DT) - Last Sunday in March to last Sunday in October
Fuel: Jet A1, without icing nhibitor.

100/130 MIL Spec, low lead, aviation gasoline (BLUE)

Runway information:
05/23 - 8366 x 148 feet< - >2550 x 45 meters

Recent METARs:
LDSP 222000Z 09008KT 060V120 8000 RA FEW010 SCT020 OVC040 08/07 Q0999 NOSIG
LDSP 222030Z 28004KT 200V330 5000 RA FEW008 BKN010 OVC035 08/07 Q1000 NOSIG
LDSP 222100Z 34004KT 310V030 9999 -RA FEW010 SCT014 OVC045 08/07 Q0999 RERA NOSIG

Airport on the map: